Salina, KS

5:11 AM CST on January 21, 2018 (GMT -0600)
Salina Municipal

Weather History for KSLN - October, 2013

Change the Weather History Date:

Friday, October 4, 2013

  Actual Average Record
Temperature  
Mean Temperature 71 °F 62 °F  
Max Temperature 92 °F 74 °F 98 °F (1938)
Min Temperature 50 °F 50 °F 30 °F (1999)
Degree Days  
Heating Degree Days 0 5  
Month to date heating degree days 0 20  
Since 1 July heating degree days 12 72  
Cooling Degree Days 6 2  
Month to date cooling degree days 35 10  
Year to date cooling degree days 1730 1622  
Growing Degree Days 22 (Base 50)    
Moisture  
Dew Point 56 °F    
Average Humidity 50    
Maximum Humidity 79    
Minimum Humidity 21    
Precipitation  
Precipitation 0.03 in 0.09 in 2.81 in (2017)
Month to date precipitation 0.03 0.36  
Year to date precipitation 27.90 27.40  
Sea Level Pressure  
Sea Level Pressure 29.72 in    
Wind  
Wind Speed 21 mph (SW)    
Max Wind Speed 33 mph    
Max Gust Speed 40 mph    
Visibility 10 miles    
Events Rain    
T = Trace of Precipitation, MM = Missing Value Source: NWS Daily Summary

Daily Weather History Graph

Daily Weather History Graph

Search for Another Location

Airport or City:

Trip Planner

Search our weather history database for the weather conditions in past years. The results will help you decide how hot, cold, wet, or windy it might be!

Date:

Astronomy

Oct. 04, 2013 Rise Set
Actual Time 7:29 AM CDT 7:08 PM CDT
Civil Twilight 7:02 AM CDT 7:34 PM CDT
Nautical Twilight 6:32 AM CDT 8:05 PM CDT
Astronomical Twilight 6:01 AM CDT 8:36 PM CDT
Moon 7:06 AM CDT (10/4) 6:51 PM CDT (10/4)
Length of Visible Light 12h 31m
Length of Day
11h 38m
Waning Crescent, 0% of the Moon is Illuminated
Oct 4
Waning Crescent
Oct 4
New
Oct 11
First Quarter
Oct 18
Full
Oct 26
Last Quarter

Hourly Weather History & Observations

Time (CDT) Temp. Heat Index Dew Point Humidity Pressure Visibility Wind Dir Wind Speed Gust Speed Precip Events Conditions
12:53 AM 79.0 °F - 64.0 °F 60% 29.64 in 10.0 mi South 20.7 mph 33.4 mph N/A   Clear
1:53 AM 78.1 °F - 64.9 °F 64% 29.64 in 10.0 mi South 18.4 mph 28.8 mph N/A   Clear
2:53 AM 77.0 °F - 64.9 °F 66% 29.63 in 10.0 mi South 18.4 mph 28.8 mph N/A   Clear
3:53 AM 75.0 °F - 64.9 °F 71% 29.62 in 10.0 mi South 17.3 mph 25.3 mph N/A   Clear
4:53 AM 73.9 °F - 64.9 °F 73% 29.62 in 10.0 mi South 19.6 mph 28.8 mph N/A   Clear
5:53 AM 73.9 °F - 66.0 °F 76% 29.62 in 10.0 mi South 20.7 mph 28.8 mph N/A   Clear
6:53 AM 73.9 °F - 66.0 °F 76% 29.64 in 10.0 mi South 17.3 mph 25.3 mph N/A   Clear
7:53 AM 73.0 °F - 66.9 °F 81% 29.64 in 10.0 mi South 17.3 mph 25.3 mph 0.02 in   Scattered Clouds
8:53 AM 73.9 °F - 66.9 °F 79% 29.65 in 10.0 mi South 17.3 mph 24.2 mph N/A   Scattered Clouds
9:53 AM 78.1 °F - 66.9 °F 68% 29.64 in 10.0 mi South 25.3 mph 40.3 mph N/A   Scattered Clouds
10:53 AM 82.0 °F 84.5 °F 66.9 °F 60% 29.65 in 10.0 mi South 21.9 mph 33.4 mph N/A   Partly Cloudy
11:53 AM 84.0 °F 86.3 °F 66.0 °F 55% 29.64 in 10.0 mi South 25.3 mph 38.0 mph N/A   Scattered Clouds
12:53 PM 87.1 °F 87.8 °F 63.0 °F 44% 29.64 in 10.0 mi SSW 28.8 mph 39.1 mph N/A   Clear
1:53 PM 91.0 °F 90.2 °F 59.0 °F 34% 29.63 in 10.0 mi SSW 29.9 mph 38.0 mph N/A   Partly Cloudy
2:53 PM 89.1 °F - 45.0 °F 22% 29.63 in 10.0 mi West 24.2 mph 31.1 mph N/A   Partly Cloudy
3:53 PM 84.0 °F 82.5 °F 53.1 °F 34% 29.66 in 10.0 mi West 21.9 mph 28.8 mph N/A   Clear
4:53 PM 82.0 °F 81.4 °F 55.0 °F 39% 29.70 in 10.0 mi West 21.9 mph 27.6 mph N/A   Clear
5:53 PM 75.0 °F - 51.1 °F 43% 29.74 in 10.0 mi NW 25.3 mph 33.4 mph N/A   Clear
6:53 PM 69.1 °F - 41.0 °F 36% 29.82 in 10.0 mi NW 23.0 mph 29.9 mph N/A   Clear
7:53 PM 64.0 °F - 37.9 °F 38% 29.90 in 10.0 mi NW 20.7 mph - N/A   Mostly Cloudy
8:53 PM 61.0 °F - 36.0 °F 39% 29.93 in 10.0 mi NW 15.0 mph 25.3 mph N/A   Mostly Cloudy
9:53 PM 55.0 °F - 37.9 °F 53% 29.98 in 10.0 mi NW 21.9 mph 29.9 mph 0.00 in Rain Light Rain
10:53 PM 53.1 °F - 36.0 °F 52% 30.01 in 10.0 mi WNW 17.3 mph 20.7 mph 0.01 in   Overcast
11:53 PM 52.0 °F - 30.9 °F 45% 30.02 in 10.0 mi NW 18.4 mph 24.2 mph 0.00 in   Overcast